Regional Weather Roundup
Issued by NWS

Current Version | Previous Version | Text Only | Print | Product List | Glossary On
Versions: 1 2 3 4 5 6 7 8 9 10 11 12 13 14 15 16 17 18 19 20 21 22 23 24 25 26 27 28 29 30 31 32 33 34 35 36 37 38 39 40 41 42 43 44 45 46 47 48 49 50
000
ASUS44 KFWD 200215
RWRTX
NORTH TEXAS HOURLY WEATHER ROUNDUP
NATIONAL WEATHER SERVICE FORT WORTH TX
900 PM CDT THU APR 19 2018

NOTE: "FAIR" INDICATES FEW OR NO CLOUDS BELOW 12,000 FEET WITH NO
SIGNIFICANT WEATHER AND/OR OBSTRUCTIONS TO VISIBILITY.

TXZ118-119-200300-
DALLAS/FORT WORTH METROPLEX

CITY           SKY/WX    TMP DP  RH WIND       PRES   REMARKS
DFW AIRPORT    FAIR      58  35  42 N8        30.24S
DALLAS LOVE    FAIR      62  36  37 NE6       30.26R
FTW MEACHAM    FAIR      64  35  34 NE8       30.24F
DAL-EXECUTIVE  FAIR      62  36  37 NE6       30.25S
FTW-ALLIANCE   FAIR      59  38  45 NE6       30.25S
FTW-NAS-JRB    FAIR      63  33  32 E7        30.25S
FTW-SPINKS     FAIR      58  34  39 NE3       30.26F
ARLINGTON      FAIR      62  34  35 N7        30.24F
GRAND PRAIRIE  CLEAR     64  32  29 N12       30.27S
ADDISON        CLEAR     63  32  31 NE6       30.26S
MESQUITE       FAIR      58  41  54 N3        30.26S
LANCASTER      FAIR      58  33  38 CALM      30.27R
$$

TXZ091>094-102>105-117-120-121-131>134-200300-
NORTH CENTRAL TEXAS

CITY           SKY/WX    TMP DP  RH WIND       PRES   REMARKS
SHRMAN/DENISON FAIR      57  37  46 E3        30.29R
GAINESVILLE    FAIR      56  33  42 E5        30.29S
BOWIE          FAIR      55  34  44 CALM      30.26S
BRIDGEPORT     FAIR      58  35  42 SE3       30.27S
DECATUR        FAIR      57  36  44 CALM      30.26S
DENTON         FAIR      59  35  40 NE7       30.26R
MCKINNEY       FAIR      57  38  48 NE5       30.27R
BONHAM         FAIR      55  39  55 NE6       30.28R
GREENVILLE     FAIR      55  43  62 CALM      30.27S
ROCKWALL       FAIR      56  43  59 MISG      30.27S
TERRELL        FAIR      58  40  51 CALM      30.26S
WAXAHACHIE     FAIR      56  38  51 NE3       30.26S
CLEBURNE       FAIR      59  34  38 NE7       30.26S
GRANBURY       FAIR      62  38  40 E5        30.26S
$$

TXZ083>090-098>101-113>116-127>130-139>142-154-155-200300-
WESTERN NORTH TEXAS

CITY           SKY/WX    TMP DP  RH WIND       PRES   REMARKS
WICHITA FALLS  FAIR      57  34  41 E8        30.24F
WF-KICKAPOO    FAIR      60  34  37 E7        30.27S
VERNON         FAIR      61  31  31 E7        30.26R
ABILENE        FAIR      62  30  29 E10       30.22S
ABILENE-DYESS  CLEAR     65  13  13 E10       30.21S
GRAHAM           N/A     58  33  38 NE3       30.23S
BRECKENRIDGE   FAIR      63  32  31 E6        30.23S
CISCO          FAIR      61  32  33 E7        30.24S
EASTLAND       FAIR      59  33  37 E5        30.24S
MINERAL WELLS  FAIR      59  34  39 E8        30.23S
STEPHENVILLE   FAIR      58  39  48 CALM      30.27S
COMANCHE       FAIR      59  34  39 E6        30.25S
BROWNWOOD      FAIR      61  32  33 E8        30.24S
COLEMAN        FAIR      60  30  31 E8        30.23S
BRADY          FAIR      63  30  29 E6        30.23S
$$

TXZ143>147-156>162-174-175-200300-
CENTRAL TEXAS

CITY           SKY/WX    TMP DP  RH WIND       PRES   REMARKS
WACO           FAIR      57  36  45 NE6       30.25R
WACO-TSTC      CLEAR     57  39  51 NE5       30.24S
WACO-MCGREGOR  FAIR      61  36  39 NE3       30.26R
HILLSBORO      FAIR      55  40  58 E6        30.24S
CORSICANA      FAIR      58  41  53 NE3       30.27R
MEXIA          FAIR      58  39  50 N5        30.24S
HEARNE         FAIR      58  43  57 CALM      30.25R
CAMERON        FAIR      61  39  45 NE3       30.24S
TEMPLE         FAIR      59  39  47 NE5       30.25R
KILLEEN        CLEAR     63  32  31 E3        30.25S
KILLEEN-SKYLRK FAIR      58  41  53 E3        30.25S
FORT HOOD      FAIR      62  39  42 E5        30.21S
GATESVILLE     FAIR      59  37  44 CALM      30.27R
HAMILTON       FAIR      60  36  40 E6        30.26S
LAMPASAS       FAIR      59  38  46 E6        30.23F
$$

TXZ095>097-106>112-122>126-135>138-148>153-164>167-200300-
EAST TEXAS

CITY           SKY/WX    TMP DP  RH WIND       PRES   REMARKS
PARIS          FAIR      56  39  53 N5        30.28R
SULPHUR SPRNGS FAIR      59  40  48 NE5       30.29R
MOUNT PLEASANT FAIR      58  39  50 N3        30.28R
GILMER         FAIR      55  42  63 CALM      30.26R
MINEOLA        FAIR      52  43  71 CALM      30.26R
TYLER          FAIR      60  38  43 NE3       30.25R
LONGVIEW       FAIR      57  45  64 CALM      30.25R
MARSHALL       FAIR      53  43  69 CALM      30.28R
ATHENS         FAIR      57  41  54 CALM      30.25R
PALESTINE      FAIR      57  44  61 N3        30.26R
JACKSONVILLE   FAIR      59  41  50 CALM      30.26S
HENDERSON      FAIR      54  45  70 CALM      30.26R
CENTER         FAIR      54  43  67 N3        30.26R
NACOGDOCHES      N/A     55  44  66 CALM      30.25R
LUFKIN         FAIR      60  43  53 NE3       30.23R
$$

SUPPLEMENTAL OBSERVATIONS (NWS FORT WORTH AREA)

CITY           SKY/WX    TMP DP  RH WIND       PRES   REMARKS
DENISON DAM      N/A     61  36  39 NE1         N/A
CADDO GRASSLND   N/A     52  41  66 NE1         N/A
LBJ GRASSLAND    N/A     57  34  41 E5          N/A
POSSUM KINGDOM   N/A     63  37  39 E3          N/A
GRANBURY         N/A     61  37  41 E6          N/A
COMANCHE         N/A     59  32  36 E8          N/A
TEMPLE           N/A     61  39  44 NE3         N/A
LAKE LIMESTONE   N/A     57  45  62 CALM        N/A
ATHENS           N/A     55  37  50 NW2         N/A
PALESTINE        N/A     54  46  76 CALM        N/A
$$

SUPPLEMENTAL OBSERVATIONS (NWS NORMAN AREA)

CITY           SKY/WX    TMP DP  RH WIND       PRES   REMARKS
GOODLETT         N/A     60  27  28 E10       30.24S
ODELL            N/A     56  29  34 E6        30.27R
CROWELL          N/A     60  32  33 E8        30.25S
KNOX CITY        N/A     61  30  31 E9        30.23F
SEYMOUR          N/A     56  33  42 E6        30.24S
MILLERS CREEK    N/A     61  37  41 E6          N/A
$$

SUPPLEMENTAL OBSERVATIONS (NWS SAN ANGELO AREA)

CITY           SKY/WX    TMP DP  RH WIND       PRES   REMARKS
WEINERT          N/A     58  32  36 E6        30.24S
HASKELL          N/A     60  29  30 E7        30.23S
THROCKMORTON     N/A     58  37  45 E8        30.24F
STAMFORD         N/A     61  33  34 E10       30.24R
CLYDE            N/A     60  31  33 E8        30.25R
HAMBY            N/A     61  30  31 E5          N/A
IVIE RESERVOIR   N/A     64  30  27 E8          N/A
COLORADO BEND    N/A     61  36  39 E5          N/A
$$

SUPPLEMENTAL OBSERVATIONS (NWS SHREVEPORT AREA)

CITY           SKY/WX    TMP DP  RH WIND       PRES   REMARKS
TEXARKANA        N/A     55  39  54 CALM        N/A
LINDEN           N/A     54  43  66 CALM        N/A
CADDO LAKE       N/A     48  45  87 CALM        N/A
LUFKIN           N/A     57  50  77 MISG        N/A
N SABINE NF      N/A     54  48  82 MISG        N/A
$$

SUPPLEMENTAL OBSERVATIONS ARE A COLLECTION OF AUTOMATED INSTRUMENTS
THAT ARE MAINTAINED BY A VARIETY OF FEDERAL AND STATE AGENCIES.
CERTAIN ELEMENTS...SUCH AS HUMIDITY VALUES AND SUSTAINED WIND
SPEEDS...MAY BE APPROXIMATED.





USA.gov is the U.S. government's official web portal to all federal, state and local government web resources and services.